Greenville Downtown, SC

5:29 PM EDT on May 23, 2017 (GMT -0400)
Greenville Downtown

Weather History for KGMU - December, 2013

Change the Weather History Date:

Tuesday, December 10, 2013

  Actual Average Record
Temperature  
Mean Temperature 47 °F -  
Max Temperature 57 °F 52 °F 77 °F (2007)
Min Temperature 36 °F 36 °F 26 °F (2005)
Degree Days  
Heating Degree Days 18    
Moisture  
Dew Point 41 °F    
Average Humidity 80    
Maximum Humidity 100    
Minimum Humidity 37    
Precipitation  
Precipitation 0.15 in - - ()
Sea Level Pressure  
Sea Level Pressure 30.03 in    
Wind  
Wind Speed 5 mph (West)    
Max Wind Speed 17 mph    
Max Gust Speed 22 mph    
Visibility 7 miles    
Events Rain    
Averages and records for this station are not official NWS values.
T = Trace of Precipitation, MM = Missing Value Source: NWS Daily Summary

Daily Weather History Graph

Daily Weather History Graph

Search for Another Location

Airport or City:

Trip Planner

Search our weather history database for the weather conditions in past years. The results will help you decide how hot, cold, wet, or windy it might be!

Date:

Astronomy

Dec. 10, 2013 Rise Set
Actual Time 7:26 AM EST 5:18 PM EST
Civil Twilight 6:58 AM EST 5:46 PM EST
Nautical Twilight 6:26 AM EST 6:17 PM EST
Astronomical Twilight 5:56 AM EST 6:48 PM EST
Moon 1:06 PM EST (12/10) 12:56 AM EST (12/10)
Length of Visible Light 10h 48m
Length of Day
9h 52m
First Quarter, 61% of the Moon is Illuminated
Dec 10
First Quarter
Dec 17
Full
Dec 25
Last Quarter
Jan 1
New
Jan 7
First Quarter

Hourly Weather History & Observations

Time (EST) Temp. Windchill Dew Point Humidity Pressure Visibility Wind Dir Wind Speed Gust Speed Precip Events Conditions
12:53 AM 46.0 °F - 44.1 °F 93% 30.04 in 10.0 mi Calm Calm - N/A   Overcast
1:23 AM 46.4 °F 45.2 °F 44.6 °F 93% 30.01 in 10.0 mi SSE 3.5 mph - 0.01 in   Overcast
1:42 AM 46.4 °F - 44.6 °F 93% 29.99 in 9.0 mi Calm Calm - 0.01 in   Overcast
1:53 AM 46.0 °F - 44.1 °F 93% 30.00 in 10.0 mi Calm Calm - 0.01 in   Overcast
2:53 AM 46.0 °F - 44.1 °F 93% 30.00 in 4.0 mi Calm Calm - N/A   Overcast
3:03 AM 46.4 °F 45.2 °F 44.6 °F 93% 29.98 in 2.5 mi SSW 3.5 mph - N/A   Overcast
3:25 AM 46.4 °F 45.2 °F 44.6 °F 93% 29.98 in 3.0 mi WSW 3.5 mph - 0.00 in   Overcast
3:39 AM 46.4 °F 45.2 °F 44.6 °F 93% 29.97 in 2.5 mi SW 3.5 mph - 0.00 in Rain Light Rain
3:53 AM 46.0 °F 44.8 °F 45.0 °F 96% 29.97 in 2.0 mi WSW 3.5 mph - 0.00 in   Overcast
4:42 AM 46.4 °F - 44.6 °F 93% 29.95 in 1.8 mi Calm Calm - 0.00 in Rain Light Rain
4:49 AM 46.4 °F 45.2 °F 44.6 °F 93% 29.95 in 2.5 mi West 3.5 mph - 0.00 in Rain Light Rain
4:53 AM 46.0 °F 44.8 °F 44.1 °F 93% 29.96 in 2.5 mi West 3.5 mph - 0.00 in Rain Light Rain
5:02 AM 46.4 °F 45.2 °F 44.6 °F 93% 29.95 in 3.0 mi WSW 3.5 mph - 0.01 in   Overcast
5:53 AM 46.0 °F - 45.0 °F 96% 29.92 in 5.0 mi Calm Calm - 0.01 in   Overcast
6:15 AM 46.4 °F 41.9 °F 44.6 °F 93% 29.95 in 2.0 mi WNW 9.2 mph 21.9 mph 0.00 in Rain Light Rain
6:33 AM 46.4 °F 44.3 °F 44.6 °F 93% 29.94 in 4.0 mi WSW 4.6 mph - 0.01 in Rain Light Rain
6:40 AM 46.4 °F 45.2 °F 44.6 °F 93% 29.93 in 4.0 mi South 3.5 mph - 0.02 in Rain Light Rain
6:50 AM 46.4 °F 44.3 °F 46.4 °F 100% 29.93 in 2.0 mi South 4.6 mph - 0.10 in Rain Heavy Rain
6:51 AM 46.9 °F - 46.0 °F 97% 29.93 in 2.0 mi SSE 5.8 mph - 0.10 in Rain Heavy Rain
6:55 AM 46.4 °F 43.5 °F 44.6 °F 93% 29.92 in 3.0 mi South 5.8 mph - 0.00 in Rain Rain
7:02 AM 46.4 °F 42.9 °F 44.6 °F 93% 29.92 in 9.0 mi South 6.9 mph - 0.01 in Rain Light Rain
7:10 AM 46.4 °F 43.5 °F 44.6 °F 93% 29.92 in 8.0 mi SSW 5.8 mph - 0.02 in Rain Rain
7:24 AM 48.2 °F - 46.4 °F 93% 29.93 in 10.0 mi SW 5.8 mph - 0.02 in Rain Light Rain
7:42 AM 48.2 °F - 46.4 °F 93% 29.92 in 10.0 mi WSW 3.5 mph - 0.02 in   Overcast
7:53 AM 48.9 °F - 46.9 °F 93% 29.93 in 10.0 mi SW 4.6 mph - 0.02 in Rain Light Rain
8:53 AM 50.0 °F - 48.0 °F 93% 29.96 in 10.0 mi WSW 8.1 mph - 0.01 in   Overcast
9:53 AM 52.0 °F - 50.0 °F 93% 29.98 in 10.0 mi WSW 8.1 mph - N/A   Overcast
10:02 AM 51.8 °F - 50.0 °F 94% 29.97 in 10.0 mi SW 8.1 mph - N/A   Overcast
10:44 AM 55.4 °F - 51.8 °F 88% 29.98 in 10.0 mi WSW 5.8 mph - N/A   Scattered Clouds
10:53 AM 57.9 °F - 51.1 °F 78% 29.99 in 10.0 mi West 9.2 mph - N/A   Partly Cloudy
11:09 AM 57.2 °F - 48.2 °F 72% 30.01 in 10.0 mi West 9.2 mph - N/A   Mostly Cloudy
11:53 AM 55.0 °F - 50.0 °F 83% 30.04 in 10.0 mi NNE 10.4 mph - N/A   Mostly Cloudy
12:01 PM 53.6 °F - 48.2 °F 82% 30.04 in 10.0 mi NNE 12.7 mph - N/A   Mostly Cloudy
12:21 PM 55.4 °F - 48.2 °F 77% 30.05 in 10.0 mi North 11.5 mph - N/A   Scattered Clouds
12:53 PM 51.1 °F - 39.9 °F 66% 30.06 in 10.0 mi North 12.7 mph - N/A   Mostly Cloudy
1:53 PM 55.0 °F - 35.1 °F 47% 30.08 in 10.0 mi NE 11.5 mph - N/A   Clear
2:53 PM 55.9 °F - 30.0 °F 37% 30.11 in 10.0 mi North 11.5 mph 18.4 mph N/A   Clear
3:53 PM 52.0 °F - 28.9 °F 41% 30.15 in 10.0 mi North 13.8 mph 20.7 mph N/A   Clear
4:53 PM 48.0 °F - 28.0 °F 46% 30.18 in 10.0 mi North 11.5 mph - N/A   Clear
5:53 PM 45.0 °F 39.3 °F 26.1 °F 48% 30.22 in 10.0 mi North 11.5 mph - N/A   Clear
6:53 PM 41.0 °F 33.5 °F 24.1 °F 51% 30.26 in 10.0 mi North 13.8 mph - N/A   Clear
7:53 PM 39.0 °F 32.3 °F 23.0 °F 53% 30.28 in 10.0 mi North 10.4 mph - N/A   Clear
8:53 PM 37.9 °F 30.0 °F 21.0 °F 51% 30.30 in 10.0 mi NNE 12.7 mph - N/A   Clear
9:53 PM 37.0 °F 28.9 °F 21.0 °F 52% 30.30 in 10.0 mi NNE 12.7 mph - N/A   Clear
10:53 PM 37.0 °F 27.4 °F 21.0 °F 52% 30.31 in 10.0 mi North 17.3 mph - N/A   Clear
11:53 PM 36.0 °F 28.0 °F 19.9 °F 52% 30.32 in 10.0 mi North 11.5 mph - N/A   Clear